User: anonymous   Login
Location: Newark
(40.9833°N, 0.0333°W)
Time: 14:09:40
(UTC+00:00)
Language:

Explorer 7 - Orbit

View from above orbital plane
View from above orbital plane
View from above satellite
View from above satellite

Ground track
Ground track

The orbit data is extracted from the following two-line orbital elements,

1    22U 59009A   20304.17184780  .00000503  00000-0  60545-4 0  9994
2    22  50.2829 189.9179 0139460  53.4502 307.9190 14.95256436245485
Epoch (UTC): 30 October 2020 04:07:27
Eccentricity: 0.0139460
inclination: 50.2829°
perigee height: 484 km
apogee height: 678 km
right ascension of ascending node: 189.9179°
argument of perigee: 53.4502°
revolutions per day: 14.95256436
mean anomaly at epoch: 307.9190°
orbit number at epoch: 24548

The dashed part of the orbit path shows where the satellite is in the earth's shadow,  

DLR